Regional Weather Roundup
Issued by NWS Portland, ME

Home | Current Version | Previous Version | Text Only | Print | Product List | Glossary On
Versions: 1 2 3 4 5 6 7 8 9 10 11 12 13 14 15 16 17 18 19 20 21 22 23 24 25 26 27 28 29 30 31 32 33 34 35 36 37 38 39 40 41 42 43 44 45 46 47 48 49 50
000
ASUS41 KGYX 252206
RWRGYX
WEATHER ROUNDUP FOR MAINE AND NEW HAMPSHIRE
NATIONAL WEATHER SERVICE GRAY ME
600 PM EDT SUN JUN 25 2017

MEZ002-005-006-010-012-015-018-020-021-024-026-027-029-252300-
MAINE

CITY           SKY/WX    TMP DP  RH WIND       PRES   REMARKS
PORTLAND       SUNNY     74  54  49 S12       29.83S
SANFORD        MOSUNNY   80  55  42 SW6       29.84S
BAR HARBOR     SUNNY     70  55  59 SW10      29.83F
WISCASSET      MOSUNNY   75  54  47 SW7       29.85S
ROCKLAND       SUNNY     72  57  59 SW10      29.84S
FRYEBURG       SUNNY     74  57  55 CALM      29.85F
LEWISTONAUBURN PTSUNNY   72  56  57 NW10      29.84R
AUGUSTA        LGT RAIN  68  56  65 NW14G29   29.86R
WATERVILLE     LGT RAIN  72  54  53 W14G28    29.82R
BANGOR         MOSUNNY   78  50  37 SW9       29.80F
GREENVILLE       N/A     65  57  75 N5        29.82F
MILLINOCKET    SUNNY     75  49  39 W3        29.80F
HOULTON        LGT RAIN  73  53  49 W6        29.77S
PRESQUE ISLE   SUNNY     73  50  44 W8        29.78S
FRENCHVILLE    MOSUNNY   67  46  47 SW7       29.76S
CARIBOU        SUNNY     73  49  42 SW13G20   29.76S
$$

NHZ002-005-008-009-011-012-014-252300-
NEW HAMPSHIRE

CITY           SKY/WX    TMP DP  RH WIND       PRES   REMARKS
PORTSMOUTH     MOSUNNY   80  56  43 S8        29.83F
ROCHESTER      MOSUNNY   81  50  33 VRB5      29.83F
NASHUA         MOSUNNY   80  55  42 VRB6      29.86S
MANCHESTER     MOSUNNY   81  52  36 S13       29.83F
CONCORD        SUNNY     82  47  29 W12       29.84S
LACONIA        MOSUNNY  N/A N/A N/A SW15G21   29.84F
PLYMOUTH       PTSUNNY   76  50  40 CALM      29.84S
BERLIN         PTSUNNY   69  53  56 S6        29.87S
WHITEFIELD     CLOUDY    66  55  67 S3        29.88R
JAFFREY        CLOUDY    76  54  46 SW6       29.90R
KEENE          PTSUNNY   78  53  41 S9        29.87S
LEBANON        CLOUDY    78  50  37 SW14      29.85R
MT WASHINGTON  FOG       43  43 100 W35G41      N/A  VSB 0
$$

VTZ005-007-008-252300-
VERMONT

CITY           SKY/WX    TMP DP  RH WIND       PRES   REMARKS
ST JOHNSBURY     N/A     69  56  62 MISG      29.84F
MONTPELIER     PTSUNNY   68  59  73 E3        29.90S
BURLINGTON     CLOUDY    70  54  56 NE10      29.87R
$$

MAZ007-012-024-CTZ003-RIZ002-NYZ038-NYZ072-252300-
SOUTHERN NEW ENGLAND AND NY

CITY           SKY/WX    TMP DP  RH WIND       PRES   REMARKS
BOSTON         CLOUDY    79  52  38 W8        29.87S
WORCESTER      MOSUNNY   73  56  54 S9        29.92R
NANTUCKET      MOSUNNY   68  62  81 S7        29.93S
PROVIDENCE     CLOUDY    74  59  59 NW18G30   29.93R
HARTFORD       MOSUNNY   77  61  57 S10       29.89F
ALBANY         PTSUNNY   77  51  40 W12       29.88F
NEW YORK CITY  PTSUNNY   79  59  50 S9        29.91F
$$

ANZ081-ANZ082-ANZ150-NHZ014-MEZ023>029-252300-
COASTAL MARINE OBSERVATIONS

STATION/POSITION TIME  TEMP    WIND        PRES    WAVE
                       AIR SEA DIR/SP/G            HT/PER
                 (UTC) (F)     (DEG/KT/KT) (MB)    (FT/S)
MATINICUS ROCK   2100   61     200/ 17/ 18 1010.6F
ISLE OF SHOALS   2100   71     210/ 18/ 20 1010.7F
JEFFREYS LEDGE   2136      61                N/A     2/ 8
CASHES LEDGE BUO 2050   66 62              1011.6    3/ 8
GEORGES BANK BUO 2050   58 55              1013.3    7/ 9
$$

.............KEY..............
   WCI - WIND CHILL
   TC  - TEMPERATURE IN CELSIUS
   VSB - VISIBILITY IN MILES
   HX  - HEAT INDEX
   FAIR- INDICATES FEW OR NO CLOUDS BELOW 12,000 FT, WITH NO
         SIGNIFICANT WEATHER AND/OR OBSTRUCTIONS TO VISIBILITY.





USA.gov is the U.S. government's official web portal to all federal, state and local government web resources and services.